SQ6MTB Weather Reports


Display with metric or nautical units.
time (UTC)temp
F
wind
direction
speed
MPH
gust
MPH
rain 1hr
in
rain 24hr
in
rain mn
in
humidity
%
barometer
mb
20220519024014 49 68 2.0 5.0 0.00 0.00 0.00 63 1023.3
20220519023551 49 61 1.0 3.0 0.00 0.00 0.00 62 1023.3
20220519023014 49 61 0.0 3.0 0.00 0.00 0.00 62 1023.3
20220519022549 50 55 0.0 4.0 0.00 0.00 0.00 62 1023.4
20220519022012 50 94 2.0 4.0 0.00 0.00 0.00 61 1023.3
20220519021548 50 77 0.0 3.0 0.00 0.00 0.00 61 1023.4
20220519021021 50 57 1.0 3.0 0.00 0.00 0.00 60 1023.5
20220519020550 50 60 1.0 3.0 0.00 0.00 0.00 59 1023.5
20220519020056 50 86 0.0 4.0 0.00 0.00 0.00 59 1023.5
20220519015530 50 99 2.0 4.0 0.00 0.00 0.00 58 1023.7
20220519015050 51 70 1.0 4.0 0.00 0.00 0.00 58 1023.6
20220519014535 51 84 1.0 3.0 0.00 0.00 0.00 58 1023.7
20220519014053 51 59 2.0 3.0 0.00 0.00 0.00 58 1023.6
20220519013533 51 65 0.0 3.0 0.00 0.00 0.00 57 1023.7
20220519013058 51 77 1.0 3.0 0.00 0.00 0.00 56 1023.7
20220519012513 51 82 0.0 3.0 0.00 0.00 0.00 56 1023.8
20220519012039 51 87 0.0 4.0 0.00 0.00 0.00 55 1023.8
20220519011513 51 94 1.0 4.0 0.00 0.00 0.00 55 1023.9
20220519011039 51 97 0.0 5.0 0.00 0.00 0.00 54 1023.8
20220519010513 52 53 1.0 5.0 0.00 0.00 0.00 54 1023.8
20220519010042 52 124 1.0 3.0 0.00 0.00 0.00 53 1023.8
20220519005516 52 150 1.0 5.0 0.00 0.00 0.00 53 1023.9
20220519005045 52 63 1.0 5.0 0.00 0.00 0.00 52 1023.9
20220519004526 52 71 1.0 6.0 0.00 0.00 0.00 52 1023.9
20220519004049 52 112 0.0 6.0 0.00 0.00 0.00 52 1024.1
20220519003507 52 115 1.0 3.0 0.00 0.00 0.00 52 1024.0
20220519003037 53 88 1.0 3.0 0.00 0.00 0.00 52 1024.1
20220519002511 53 69 1.0 3.0 0.00 0.00 0.00 51 1024.1
20220519002032 53 148 0.0 3.0 0.00 0.00 0.00 51 1024.1
20220519001507 53 91 1.0 3.0 0.00 0.00 0.00 50 1024.2
20220519001033 53 75 0.0 3.0 0.00 0.00 0.00 50 1024.2
20220519000507 53 77 0.0 3.0 0.00 0.00 0.00 50 1024.3
20220519000036 53 84 1.0 5.0 0.00 0.00 0.00 50 1024.2
20220518235510 53 176 1.0 5.0 0.00 0.00 0.00 50 1024.2
20220518235038 53 74 2.0 4.0 0.00 0.00 0.00 50 1024.3
20220518234549 53 77 1.0 4.0 0.00 0.00 0.00 49 1024.2
20220518234014 53 122 0.0 5.0 0.00 0.00 0.00 49 1024.3
20220518233549 53 88 2.0 5.0 0.00 0.00 0.00 49 1024.3
20220518233019 53 21 1.0 5.0 0.00 0.00 0.00 49 1024.3
20220518232551 54 78 1.0 5.0 0.00 0.00 0.00 49 1024.3
20220518232023 54 86 0.0 3.0 0.00 0.00 0.00 48 1024.4
20220518231558 54 139 0.0 4.0 0.00 0.00 0.00 48 1024.4
20220518231033 54 129 1.0 5.0 0.00 0.00 0.00 47 1024.4
20220518230508 54 127 2.0 8.0 0.00 0.00 0.00 47 1024.3
20220518230042 55 159 1.0 8.0 0.00 0.00 0.00 47 1024.4
20220518225515 54 190 1.0 6.0 0.00 0.00 0.00 47 1024.4
20220518225044 54 186 1.0 6.0 0.00 0.00 0.00 47 1024.5
20220518224518 55 130 2.0 5.0 0.00 0.00 0.00 47 1024.6
20220518224028 55 210 0.0 4.0 0.00 0.00 0.00 47 1024.6
20220518223559 55 153 1.0 4.0 0.00 0.00 0.00 47 1024.6
20220518223501 55 152 1.0 4.0 0.00 0.00 0.00 47 1024.7
20220518223028 55 116 0.0 3.0 0.00 0.00 0.00 47 1024.7
20220518222559 55 102 0.0 3.0 0.00 0.00 0.00 48 1024.7
20220518222502 55 51 1.0 3.0 0.00 0.00 0.00 48 1024.7
20220518222025 55 94 1.0 3.0 0.00 0.00 0.00 48 1024.7
20220518221555 55 83 1.0 4.0 0.00 0.00 0.00 48 1024.8
20220518221018 55 87 1.0 4.0 0.00 0.00 0.00 48 1024.8
20220518220551 55 75 1.0 4.0 0.00 0.00 0.00 48 1024.7
20220518220013 55 70 1.0 4.0 0.00 0.00 0.00 47 1024.8
20220518215545 56 350 2.0 4.0 0.00 0.00 0.00 47 1024.9
20220518215021 56 61 1.0 5.0 0.00 0.00 0.00 47 1024.9
20220518214553 56 68 2.0 5.0 0.00 0.00 0.00 46 1024.9
20220518214026 56 41 2.0 4.0 0.00 0.00 0.00 45 1024.9
20220518213601 57 302 1.0 3.0 0.00 0.00 0.00 45 1024.9
20220518213501 57 68 1.0 3.0 0.00 0.00 0.00 45 1025.0
20220518213033 57 88 1.0 4.0 0.00 0.00 0.00 44 1025.0
20220518212507 57 48 1.0 5.0 0.00 0.00 0.00 44 1025.0
20220518212037 57 84 0.0 5.0 0.00 0.00 0.00 43 1025.0
20220518211510 58 228 0.0 5.0 0.00 0.00 0.00 43 1025.1
20220518211039 58 86 1.0 5.0 0.00 0.00 0.00 43 1025.0
20220518210513 58 106 1.0 5.0 0.00 0.00 0.00 43 1025.1
20220518210041 58 164 1.0 5.0 0.00 0.00 0.00 42 1025.1
20220518205517 59 201 2.0 6.0 0.00 0.00 0.00 42 1025.1
20220518205046 59 148 2.0 5.0 0.00 0.00 0.00 42 1025.1
20220518204517 59 205 2.0 8.0 0.00 0.00 0.00 42 1025.1
20220518204047 59 165 2.0 8.0 0.00 0.00 0.00 42 1025.1
20220518203523 59 159 2.0 7.0 0.00 0.00 0.00 42 1025.2
20220518203105 60 142 2.0 7.0 0.00 0.00 0.00 41 1025.2
20220518202536 60 112 3.0 6.0 0.00 0.00 0.00 41 1025.1
20220518202058 60 173 3.0 6.0 0.00 0.00 0.00 41 1025.2
20220518201537 60 176 3.0 6.0 0.00 0.00 0.00 41 1025.2
20220518201003 60 139 1.0 6.0 0.00 0.00 0.00 42 1025.1
20220518200543 60 152 2.0 6.0 0.00 0.00 0.00 42 1025.2
20220518200023 60 102 1.0 4.0 0.00 0.00 0.00 42 1025.3
20220518195545 61 180 1.0 4.0 0.00 0.00 0.00 42 1025.1
20220518195012 61 212 1.0 5.0 0.00 0.00 0.00 41 1025.1
20220518194549 61 131 2.0 5.0 0.00 0.00 0.00 41 1025.1
20220518194013 62 149 2.0 4.0 0.00 0.00 0.00 41 1025.1
20220518193531 62 135 1.0 5.0 0.00 0.00 0.00 41 1025.1
20220518193045 62 148 2.0 5.0 0.00 0.00 0.00 41 1025.1
20220518192517 62 112 2.0 4.0 0.00 0.00 0.00 41 1025.0
20220518192043 63 188 2.0 4.0 0.00 0.00 0.00 40 1025.1
20220518191517 63 105 2.0 5.0 0.00 0.00 0.00 40 1025.0
20220518191052 63 141 2.0 5.0 0.00 0.00 0.00 40 1025.0
20220518190531 64 172 1.0 4.0 0.00 0.00 0.00 40 1024.9
20220518190202 64 77 0.0 4.0 0.00 0.00 0.00 39 1024.9
20220518190001 64 248 1.0 4.0 0.00 0.00 0.00 39 1024.9
20220518185537 64 171 1.0 4.0 0.00 0.00 0.00 38 1024.9
20220518185004 65 203 1.0 3.0 0.00 0.00 0.00 37 1024.8
20220518184543 65 62 1.0 4.0 0.00 0.00 0.00 36 1024.8
20220518184007 66 67 1.0 4.0 0.00 0.00 0.00 36 1024.8
20220518183542 66 83 0.0 4.0 0.00 0.00 0.00 35 1024.8
20220518183011 67 79 1.0 4.0 0.00 0.00 0.00 35 1024.8
20220518182545 67 96 2.0 4.0 0.00 0.00 0.00 34 1024.8
20220518182017 68 79 1.0 5.0 0.00 0.00 0.00 34 1024.8
20220518181547 68 92 2.0 5.0 0.00 0.00 0.00 33 1024.7
20220518181018 69 69 2.0 6.0 0.00 0.00 0.00 32 1024.8
20220518180553 69 115 2.0 6.0 0.00 0.00 0.00 32 1024.8
20220518180023 70 72 1.0 5.0 0.00 0.00 0.00 32 1024.8
20220518175554 70 70 2.0 7.0 0.00 0.00 0.00 31 1024.8
20220518175025 70 71 3.0 7.0 0.00 0.00 0.00 31 1024.8
20220518174612 71 15 2.0 7.0 0.00 0.00 0.00 31 1024.8
20220518174501 71 73 2.0 7.0 0.00 0.00 0.00 31 1024.8
20220518174031 71 95 2.0 7.0 0.00 0.00 0.00 30 1024.8
20220518173506 72 113 2.0 5.0 0.00 0.00 0.00 30 1024.8
20220518173015 73 183 1.0 4.0 0.00 0.00 0.00 31 1024.8
20220518172545 73 193 1.0 4.0 0.00 0.00 0.00 32 1024.8
20220518172015 72 146 2.0 5.0 0.00 0.00 0.00 32 1024.7
20220518171547 72 162 2.0 5.0 0.00 0.00 0.00 31 1024.8
20220518171016 73 141 2.0 4.0 0.00 0.00 0.00 31 1024.7
20220518170549 73 151 2.0 5.0 0.00 0.00 0.00 30 1024.7
20220518170059 73 127 2.0 5.0 0.00 0.00 0.00 30 1024.7
20220518170001 73 151 2.0 5.0 0.00 0.00 0.00 30 1024.8
20220518165539 73 148 1.0 4.0 0.00 0.00 0.00 31 1024.8
20220518165008 73 154 1.0 4.0 0.00 0.00 0.00 30 1024.8
20220518164522 73 113 1.0 5.0 0.00 0.00 0.00 30 1024.8
20220518164049 72 134 2.0 5.0 0.00 0.00 0.00 32 1024.8
20220518163525 73 163 1.0 6.0 0.00 0.00 0.00 31 1024.8
20220518163055 73 123 3.0 6.0 0.00 0.00 0.00 30 1024.8
20220518162530 73 167 0.0 4.0 0.00 0.00 0.00 29 1024.8
20220518162044 73 151 2.0 5.0 0.00 0.00 0.00 29 1024.9
20220518161517 73 124 3.0 5.0 0.00 0.00 0.00 29 1024.9
20220518161046 73 241 1.0 5.0 0.00 0.00 0.00 30 1024.9
20220518160518 73 99 1.0 5.0 0.00 0.00 0.00 31 1024.9
20220518160046 73 153 1.0 5.0 0.00 0.00 0.00 30 1024.9
20220518155522 73 124 2.0 7.0 0.00 0.00 0.00 30 1024.9
20220518155049 73 124 3.0 10.0 0.00 0.00 0.00 30 1024.9
20220518154531 73 163 2.0 10.0 0.00 0.00 0.00 30 1024.8
20220518154055 73 24 2.0 6.0 0.00 0.00 0.00 29 1024.9
20220518153532 73 136 2.0 6.0 0.00 0.00 0.00 30 1024.9
20220518153104 73 243 3.0 6.0 0.00 0.00 0.00 29 1024.9
20220518152534 73 144 1.0 7.0 0.00 0.00 0.00 30 1025.1
20220518152101 73 136 3.0 7.0 0.00 0.00 0.00 29 1025.1
20220518152002 73 113 2.0 5.0 0.00 0.00 0.00 29 1025.2
20220518151541 72 347 0.0 9.0 0.00 0.00 0.00 30 1025.1
20220518151005 72 77 4.0 9.0 0.00 0.00 0.00 29 1025.1
20220518150518 73 171 2.0 6.0 0.00 0.00 0.00 29 1025.1
20220518150040 73 179 1.0 11.0 0.00 0.00 0.00 29 1025.2
20220518145515 73 154 5.0 11.0 0.00 0.00 0.00 29 1025.2
20220518145039 73 254 2.0 8.0 0.00 0.00 0.00 29 1025.2
20220518144523 73 51 1.0 6.0 0.00 0.00 0.00 30 1025.2
20220518144039 73 205 3.0 8.0 0.00 0.00 0.00 30 1025.2
20220518143518 73 211 4.0 8.0 0.00 0.00 0.00 30 1025.3
20220518143059 72 112 3.0 7.0 0.00 0.00 0.00 30 1025.4
20220518142517 72 191 2.0 7.0 0.00 0.00 0.00 30 1025.4
20220518142048 73 101 3.0 10.0 0.00 0.00 0.00 29 1025.4
20220518141527 72 148 2.0 11.0 0.00 0.00 0.00 30 1025.4
20220518141050 73 161 2.0 11.0 0.00 0.00 0.00 29 1025.6
20220518140530 72 226 4.0 11.0 0.00 0.00 0.00 30 1025.5
20220518140055 72 132 3.0 8.0 0.00 0.00 0.00 31 1025.5
20220518135532 72 272 2.0 8.0 0.00 0.00 0.00 31 1025.5
20220518135056 72 161 2.0 9.0 0.00 0.00 0.00 31 1025.6
20220518134534 72 165 2.0 9.0 0.00 0.00 0.00 30 1025.6
20220518134058 72 164 2.0 6.0 0.00 0.00 0.00 30 1025.7
20220518133532 72 127 2.0 6.0 0.00 0.00 0.00 28 1025.7
20220518133055 72 267 2.0 10.0 0.00 0.00 0.00 29 1025.8
20220518132515 72 161 6.0 10.0 0.00 0.00 0.00 29 1025.9
20220518132035 72 209 2.0 9.0 0.00 0.00 0.00 30 1025.9
20220518131518 72 200 3.0 13.0 0.00 0.00 0.00 31 1025.9
20220518131037 72 79 3.0 7.0 0.00 0.00 0.00 30 1026.0
20220518130547 72 208 2.0 12.0 0.00 0.00 0.00 31 1026.0
20220518130009 71 110 2.0 12.0 0.00 0.00 0.00 30 1026.1
20220518125543 72 139 3.0 6.0 0.00 0.00 0.00 31 1026.2
20220518125006 71 139 1.0 8.0 0.00 0.00 0.00 30 1026.2
20220518124540 71 244 4.0 8.0 0.00 0.00 0.00 30 1026.2
20220518124007 71 175 2.0 10.0 0.00 0.00 0.00 30 1026.3
20220518123540 71 88 2.0 14.0 0.00 0.00 0.00 31 1026.2
20220518123009 71 122 7.0 14.0 0.00 0.00 0.00 31 1026.2
20220518122544 71 82 3.0 7.0 0.00 0.00 0.00 31 1026.2
20220518122014 71 58 1.0 8.0 0.00 0.00 0.00 31 1026.2
20220518121544 71 256 3.0 8.0 0.00 0.00 0.00 31 1026.3
20220518121014 71 216 3.0 10.0 0.00 0.00 0.00 31 1026.3
20220518120547 70 150 5.0 11.0 0.00 0.00 0.00 32 1026.2
20220518120054 70 94 6.0 11.0 0.00 0.00 0.00 34 1026.3
20220518115534 70 118 2.0 7.0 0.00 0.00 0.00 32 1026.3
20220518115003 70 115 3.0 8.0 0.00 0.00 0.00 33 1026.3
20220518114541 70 238 2.0 8.0 0.00 0.00 0.00 34 1026.2
20220518114058 70 110 4.0 9.0 0.00 0.00 0.00 35 1026.2
20220518113532 69 221 4.0 9.0 0.00 0.00 0.00 35 1026.3
20220518113135 69 56 4.0 8.0 0.00 0.00 0.00 35 1026.2
20220518112536 68 104 4.0 11.0 0.00 0.00 0.00 35 1026.4
20220518112059 68 51 7.0 12.0 0.00 0.00 0.00 36 1026.5
20220518111536 68 107 7.0 12.0 0.00 0.00 0.00 36 1026.6
20220518111100 68 68 5.0 10.0 0.00 0.00 0.00 37 1026.6
20220518111002 68 70 5.0 11.0 0.00 0.00 0.00 36 1026.5
20220518110538 68 175 2.0 11.0 0.00 0.00 0.00 37 1026.6
20220518110008 68 86 3.0 17.0 0.00 0.01 0.00 36 1026.7
20220518105521 67 75 2.0 13.0 0.00 0.01 0.00 38 1026.7
20220518105046 67 70 6.0 13.0 0.00 0.01 0.00 37 1026.7
20220518104529 67 65 5.0 13.0 0.00 0.01 0.00 38 1026.7
20220518104053 66 20 6.0 14.0 0.00 0.01 0.00 38 1026.8
20220518103528 66 87 7.0 14.0 0.00 0.01 0.00 38 1026.8
20220518103047 66 96 6.0 14.0 0.00 0.01 0.00 38 1026.9
20220518102518 67 58 3.0 13.0 0.00 0.01 0.00 38 1026.9
20220518102040 66 57 6.0 14.0 0.00 0.01 0.00 38 1026.8
20220518101514 66 111 5.0 14.0 0.00 0.01 0.00 39 1026.9
20220518101041 67 288 6.0 12.0 0.00 0.01 0.00 38 1027.0
20220518100515 67 78 3.0 9.0 0.00 0.01 0.00 38 1026.9
20220518100038 66 129 2.0 12.0 0.00 0.01 0.00 39 1027.0
20220518095513 65 79 6.0 12.0 0.00 0.01 0.00 39 1027.0
20220518095041 66 185 3.0 9.0 0.00 0.01 0.00 39 1027.2
20220518094517 66 63 2.0 9.0 0.00 0.01 0.00 40 1027.1
20220518094044 65 105 5.0 11.0 0.00 0.01 0.00 40 1027.1
20220518093521 64 47 5.0 11.0 0.00 0.01 0.00 40 1027.1
20220518093107 64 79 5.0 13.0 0.00 0.01 0.00 40 1027.1
20220518092524 65 87 5.0 11.0 0.00 0.01 0.00 39 1027.1
20220518092034 65 179 5.0 12.0 0.00 0.01 0.00 40 1027.1
20220518091506 64 92 5.0 12.0 0.00 0.01 0.00 40 1027.2
20220518091034 64 69 2.0 11.0 0.00 0.01 0.00 40 1027.2
20220518090511 64 126 5.0 11.0 0.00 0.01 0.00 40 1027.2
20220518090038 63 84 4.0 10.0 0.00 0.01 0.00 41 1027.2
20220518085513 63 73 5.0 11.0 0.00 0.01 0.00 40 1027.2
20220518085036 63 66 3.0 11.0 0.00 0.01 0.00 41 1027.3
20220518084510 63 162 4.0 14.0 0.00 0.01 0.00 41 1027.3
20220518084036 63 171 5.0 14.0 0.00 0.01 0.00 41 1027.3
20220518083512 63 46 2.0 11.0 0.00 0.01 0.00 41 1027.3
20220518083047 62 71 4.0 11.0 0.00 0.01 0.00 41 1027.3
20220518082518 62 52 6.0 12.0 0.00 0.01 0.00 41 1027.3
20220518082040 62 91 3.0 12.0 0.00 0.01 0.00 41 1027.4
20220518081514 62 80 4.0 8.0 0.00 0.01 0.00 40 1027.4
20220518081038 62 133 4.0 7.0 0.00 0.01 0.00 40 1027.5
20220518080514 62 141 2.0 8.0 0.00 0.01 0.00 41 1027.5
20220518080105 61 165 3.0 9.0 0.00 0.01 0.00 42 1027.5
20220518075513 61 176 4.0 9.0 0.00 0.01 0.00 43 1027.4
20220518075043 60 178 1.0 8.0 0.00 0.01 0.00 44 1027.4
20220518074556 59 145 3.0 13.0 0.00 0.01 0.00 45 1027.3
20220518074026 59 96 6.0 13.0 0.00 0.01 0.00 45 1027.3
20220518073558 59 66 6.0 12.0 0.00 0.01 0.00 46 1027.3
20220518073022 58 94 4.0 11.0 0.00 0.01 0.00 47 1027.3
20220518072554 58 83 4.0 11.0 0.00 0.01 0.00 46 1027.2
20220518072024 58 230 3.0 14.0 0.00 0.01 0.00 48 1027.2
20220518071558 57 77 8.0 14.0 0.00 0.01 0.00 47 1027.2
20220518071016 57 62 5.0 12.0 0.00 0.01 0.00 49 1027.2
20220518070552 57 141 3.0 12.0 0.00 0.01 0.00 51 1027.2
20220518070014 56 70 5.0 11.0 0.00 0.01 0.00 50 1027.1
20220518065549 57 63 3.0 10.0 0.00 0.01 0.00 51 1027.1
20220518065057 56 77 4.0 13.0 0.00 0.01 0.00 52 1027.1
20220518064543 55 65 1.0 13.0 0.00 0.01 0.00 53 1027.1
20220518064100 55 113 4.0 8.0 0.00 0.01 0.00 53 1027.0
20220518064002 55 165 3.0 8.0 0.00 0.01 0.00 53 1027.1
20220518063538 55 94 3.0 9.0 0.00 0.01 0.00 53 1027.0
20220518063007 54 214 4.0 13.0 0.00 0.01 0.00 53 1027.1
20220518062544 54 60 3.0 10.0 0.00 0.01 0.00 53 1026.9
20220518062009 54 1 4.0 10.0 0.00 0.01 0.00 53 1026.9
20220518061551 54 129 3.0 10.0 0.00 0.01 0.00 54 1026.7
20220518061019 53 157 2.0 13.0 0.00 0.01 0.00 55 1026.8
20220518060548 53 75 4.0 13.0 0.00 0.01 0.00 56 1026.9
20220518060016 52 81 6.0 12.0 0.00 0.01 0.00 56 1027.0
20220518055537 52 66 5.0 12.0 0.00 0.01 0.00 57 1027.0
20220518055059 51 43 6.0 15.0 0.00 0.01 0.00 57 1026.8
20220518054535 51 14 5.0 16.0 0.00 0.01 0.00 57 1026.8
20220518054040 51 62 7.0 16.0 0.00 0.01 0.00 57 1026.7
20220518053513 51 130 3.0 12.0 0.00 0.01 0.00 58 1026.8
20220518053040 50 92 5.0 12.0 0.00 0.01 0.00 58 1026.6
20220518052514 50 73 4.0 11.0 0.00 0.01 0.00 58 1026.7
20220518052051 50 110 4.0 11.0 0.00 0.01 0.00 58 1026.7
20220518051540 50 195 3.0 11.0 0.00 0.01 0.00 58 1026.7
20220518051034 49 356 4.0 10.0 0.00 0.01 0.00 59 1026.7
20220518050507 49 76 4.0 10.0 0.00 0.01 0.00 59 1026.7
20220518050026 49 77 3.0 10.0 0.00 0.01 0.00 60 1026.6
20220518045558 49 135 4.0 10.0 0.00 0.01 0.00 60 1026.5
20220518045059 48 70 4.0 9.0 0.00 0.01 0.00 60 1026.5
20220518045002 48 212 4.0 9.0 0.00 0.01 0.00 60 1026.5
20220518044534 48 78 3.0 11.0 0.00 0.01 0.00 60 1026.4
20220518044058 48 134 4.0 12.0 0.00 0.01 0.00 60 1026.5
20220518043536 48 58 4.0 12.0 0.00 0.01 0.00 60 1026.4
20220518043006 48 57 4.0 11.0 0.00 0.01 0.00 60 1026.3
20220518042541 48 60 4.0 11.0 0.00 0.01 0.00 61 1026.4
20220518042059 48 82 4.0 10.0 0.00 0.01 0.00 60 1026.4
20220518042001 48 121 4.0 10.0 0.00 0.01 0.00 60 1026.4
20220518041542 48 77 5.0 10.0 0.00 0.01 0.00 60 1026.5
20220518041014 48 63 6.0 11.0 0.00 0.01 0.00 60 1026.4
20220518040541 48 75 6.0 11.0 0.00 0.01 0.00 60 1026.3
20220518040005 47 78 4.0 10.0 0.00 0.01 0.00 60 1026.2
20220518035541 47 75 4.0 10.0 0.00 0.01 0.00 61 1026.2
20220518035014 47 70 4.0 9.0 0.00 0.01 0.00 61 1026.2
20220518034548 47 77 5.0 9.0 0.00 0.01 0.00 60 1026.2
20220518034015 47 98 5.0 9.0 0.00 0.01 0.00 61 1026.0
20220518033548 47 66 4.0 10.0 0.00 0.01 0.00 61 1026.0
20220518033008 47 84 4.0 9.0 0.00 0.01 0.00 60 1026.0
20220518032543 47 106 5.0 9.0 0.00 0.01 0.00 60 1025.9
20220518032009 47 186 5.0 11.0 0.00 0.01 0.00 60 1025.8
20220518031547 47 63 6.0 11.0 0.00 0.01 0.00 60 1025.8
20220518031016 47 73 5.0 10.0 0.00 0.01 0.00 60 1025.7
20220518030548 47 84 5.0 14.0 0.00 0.01 0.00 59 1025.7
20220518030009 48 72 6.0 11.0 0.00 0.01 0.00 59 1025.6
20220518025539 48 104 7.0 11.0 0.00 0.01 0.00 59 1025.4
20220518025007 48 73 6.0 11.0 0.00 0.01 0.00 59 1025.4
20220518024543 48 65 6.0 11.0 0.00 0.01 0.00 58 1025.4